Location: St. Louis
(38.6270°N, 90.1994°W)
Time: 13:15:19
(UTC-06:00)

deb Explorer IX - Pass Details

Date: 04 December 2021
Orbit: 544 x 1082 km, 38.8° (Epoch: 16 January)

Event Time Altitude Azimuth Distance (km) Brightness Sun altitude
Rises 09:00:04 0° 223° (SW) 3,231 ? 17.1°
Reaches altitude 10° 09:02:56 10° 213° (SSW) 2,206 ? 17.4°
Maximum altitude 09:07:19 29° 153° (SSE) 1,197 ? 18.0°
Drops below altitude 10° 09:11:12 10° 93° (E) 1,955 ? 18.5°
Sets 09:13:36 0° 82° (E) 2,801 ? 18.8°
